^^
Station Historical Data
Daily Summary for January 30, 2017 Units:  English    Metric   Both
« Previous Day
Next Day »
Daily Weekly Monthly Yearly Custom
  High: Low: Average:
Temperature: 35.1 °F 23.8 °F 29.1 °F
Dew Point: 25.7 °F 17.2 °F 21.1 °F
Humidity: 84 % 49 % 73 %
Wind Speed: 11.0 mph 0.0 mph 1.8 mph
Wind Gust: 13.8 mph - -
Wind:- - West
Pressure: 30.00 in 29.75 in -
Precipitation: 0.00 in    
Historical Graphs
 
 
Tabular Data for January 30, 2017
Time Temperature Dew Point Pressure Wind Wind Speed Wind Gust Humidity Rainfall Rate (Hourly) solar Conditions
00:03 30.7 °F 22.4 °F 29.76 in WSW 0.1 mph 2.0 mph 71 % 0.00 in 0.0 W/m2 CLR
00:08 30.7 °F 22.4 °F 29.76 in WSW 0.4 mph 3.5 mph 71 % 0.00 in 0.0 W/m2 CLR
00:13 30.7 °F 22.4 °F 29.76 in Calm     71 % 0.00 in 0.0 W/m2 CLR
00:18 30.8 °F 22.5 °F 29.76 in Calm     71 % 0.00 in 0.0 W/m2 CLR
00:23 30.8 °F 22.5 °F 29.76 in Calm   1.0 mph 71 % 0.00 in 0.0 W/m2 CLR
00:28 30.8 °F 22.5 °F 29.76 in Calm     71 % 0.00 in 0.0 W/m2 CLR
00:33 30.7 °F 22.4 °F 29.76 in Calm     71 % 0.00 in 0.0 W/m2 CLR
00:38 30.6 °F 22.3 °F 29.76 in Calm     71 % 0.00 in 0.0 W/m2 CLR
00:43 30.5 °F 22.2 °F 29.76 in Calm     71 % 0.00 in 0.0 W/m2 CLR
00:48 30.3 °F 22.0 °F 29.76 in Calm     71 % 0.00 in 0.0 W/m2 CLR
00:53 30.2 °F 22.3 °F 29.76 in Calm     72 % 0.00 in 0.0 W/m2 CLR
00:58 30.2 °F 22.3 °F 29.76 in Calm     72 % 0.00 in 0.0 W/m2 CLR
01:03 30.1 °F 22.2 °F 29.76 in Calm     72 % 0.00 in 0.0 W/m2 CLR
01:08 29.9 °F 22.0 °F 29.76 in Calm     72 % 0.00 in 0.0 W/m2 CLR
01:13 29.8 °F 21.9 °F 29.76 in Calm     72 % 0.00 in 0.0 W/m2 CLR
01:18 29.8 °F 22.2 °F 29.76 in Calm     73 % 0.00 in 0.0 W/m2 CLR
01:23 29.9 °F 22.3 °F 29.75 in Calm     73 % 0.00 in 0.0 W/m2 CLR
01:28 29.9 °F 22.3 °F 29.76 in Calm     73 % 0.00 in 0.0 W/m2 CLR
01:33 29.7 °F 21.8 °F 29.76 in Calm     72 % 0.00 in 0.0 W/m2 CLR
01:38 29.8 °F 21.9 °F 29.76 in WNW 0.4 mph 2.3 mph 72 % 0.00 in 0.0 W/m2 CLR
01:43 29.9 °F 22.0 °F 29.75 in NW 0.6 mph 3.0 mph 72 % 0.00 in 0.0 W/m2 CLR
01:48 30.0 °F 21.7 °F 29.76 in NW 1.5 mph 4.0 mph 71 % 0.00 in 0.0 W/m2 CLR
01:53 30.0 °F 21.7 °F 29.76 in NNW 2.1 mph 3.5 mph 71 % 0.00 in 0.0 W/m2 CLR
01:58 30.1 °F 21.5 °F 29.75 in NNW 2.9 mph 5.0 mph 70 % 0.00 in 0.0 W/m2 CLR
02:03 30.2 °F 21.6 °F 29.76 in NNW 0.1 mph 3.5 mph 70 % 0.00 in 0.0 W/m2 CLR
02:08 30.1 °F 21.5 °F 29.76 in NNW 0.3 mph 3.5 mph 70 % 0.00 in 0.0 W/m2 CLR
02:13 30.0 °F 21.4 °F 29.76 in NNW 1.2 mph 3.5 mph 70 % 0.00 in 0.0 W/m2 CLR
02:19 30.0 °F 21.4 °F 29.76 in North 2.7 mph 3.5 mph 70 % 0.00 in 0.0 W/m2 CLR
02:24 29.9 °F 21.3 °F 29.76 in NNW 2.7 mph 3.5 mph 70 % 0.00 in 0.0 W/m2 CLR
02:29 29.8 °F 21.5 °F 29.76 in North 2.3 mph 3.5 mph 71 % 0.00 in 0.0 W/m2 CLR
02:34 29.5 °F 21.3 °F 29.76 in North 2.2 mph 3.0 mph 71 % 0.00 in 0.0 W/m2 CLR
02:39 29.4 °F 21.5 °F 29.76 in North 2.5 mph 3.5 mph 72 % 0.00 in 0.0 W/m2 CLR
02:44 29.3 °F 21.7 °F 29.76 in Calm   2.3 mph 73 % 0.00 in 0.0 W/m2 CLR
02:49 29.2 °F 21.6 °F 29.77 in Calm   1.2 mph 73 % 0.00 in 0.0 W/m2 CLR
02:54 29.1 °F 21.8 °F 29.77 in North 1.6 mph 3.5 mph 74 % 0.00 in 0.0 W/m2 CLR
02:59 29.1 °F 21.8 °F 29.77 in North 0.9 mph 2.3 mph 74 % 0.00 in 0.0 W/m2 CLR
03:04 29.0 °F 22.1 °F 29.77 in Calm     75 % 0.00 in 0.0 W/m2 CLR
03:09 28.8 °F 21.9 °F 29.77 in Calm     75 % 0.00 in 0.0 W/m2 CLR
03:14 28.6 °F 22.0 °F 29.77 in Calm   1.2 mph 76 % 0.00 in 0.0 W/m2 CLR
03:19 28.4 °F 21.8 °F 29.77 in Calm     76 % 0.00 in 0.0 W/m2 CLR
03:24 28.2 °F 21.6 °F 29.77 in Calm     76 % 0.00 in 0.0 W/m2 CLR
03:29 28.1 °F 21.5 °F 29.77 in Calm     76 % 0.00 in 0.0 W/m2 CLR
03:34 27.9 °F 21.6 °F 29.77 in Calm     77 % 0.00 in 0.0 W/m2 CLR
03:39 27.8 °F 21.5 °F 29.77 in Calm     77 % 0.00 in 0.0 W/m2 CLR
03:44 27.5 °F 21.2 °F 29.77 in Calm     77 % 0.00 in 0.0 W/m2 CLR
03:49 27.5 °F 21.2 °F 29.77 in Calm     77 % 0.00 in 0.0 W/m2 CLR
03:54 27.4 °F 21.1 °F 29.77 in Calm     77 % 0.00 in 0.0 W/m2 CLR
03:59 27.3 °F 21.0 °F 29.78 in Calm     77 % 0.00 in 0.0 W/m2 CLR
04:04 27.0 °F 20.7 °F 29.78 in Calm     77 % 0.00 in 0.0 W/m2 CLR
04:09 26.8 °F 20.9 °F 29.78 in Calm     78 % 0.00 in 0.0 W/m2 CLR
04:14 26.8 °F 20.9 °F 29.78 in Calm     78 % 0.00 in 0.0 W/m2 CLR
04:19 26.8 °F 21.2 °F 29.78 in Calm     79 % 0.00 in 0.0 W/m2 CLR
04:24 26.9 °F 21.3 °F 29.78 in Calm     79 % 0.00 in 0.0 W/m2 CLR
04:29 26.8 °F 20.9 °F 29.78 in Calm     78 % 0.00 in 0.0 W/m2 CLR
04:34 26.6 °F 20.7 °F 29.78 in Calm     78 % 0.00 in 0.0 W/m2 CLR
04:39 26.4 °F 20.8 °F 29.78 in Calm     79 % 0.00 in 0.0 W/m2 CLR
04:44 26.4 °F 20.8 °F 29.78 in Calm     79 % 0.00 in 0.0 W/m2 CLR
04:49 26.4 °F 20.8 °F 29.78 in Calm     79 % 0.00 in 0.0 W/m2 CLR
04:54 26.2 °F 20.9 °F 29.78 in Calm     80 % 0.00 in 0.0 W/m2 CLR
04:59 26.1 °F 20.8 °F 29.78 in Calm     80 % 0.00 in 0.0 W/m2 CLR
05:04 26.2 °F 20.9 °F 29.78 in Calm     80 % 0.00 in 0.0 W/m2 CLR
05:09 26.3 °F 21.0 °F 29.78 in Calm     80 % 0.00 in 0.0 W/m2 CLR
05:14 26.3 °F 21.0 °F 29.78 in Calm     80 % 0.00 in 0.0 W/m2 CLR
05:19 26.3 °F 20.7 °F 29.78 in Calm     79 % 0.00 in 0.0 W/m2 CLR
05:24 26.4 °F 20.8 °F 29.78 in Calm     79 % 0.00 in 0.0 W/m2 CLR
05:29 26.4 °F 20.8 °F 29.78 in Calm     79 % 0.00 in 0.0 W/m2 CLR
05:34 26.3 °F 20.7 °F 29.78 in Calm     79 % 0.00 in 0.0 W/m2 CLR
05:39 26.2 °F 20.6 °F 29.79 in Calm     79 % 0.00 in 0.0 W/m2 CLR
05:44 25.9 °F 20.6 °F 29.79 in Calm     80 % 0.00 in 0.0 W/m2 CLR
05:49 25.7 °F 20.4 °F 29.79 in Calm     80 % 0.00 in 0.0 W/m2 CLR
05:54 25.5 °F 20.5 °F 29.79 in Calm     81 % 0.00 in 0.0 W/m2 CLR
05:59 25.4 °F 20.4 °F 29.79 in Calm     81 % 0.00 in 0.0 W/m2 CLR
06:04 25.3 °F 20.6 °F 29.79 in Calm     82 % 0.00 in 0.0 W/m2 CLR
06:09 25.3 °F 20.6 °F 29.79 in Calm     82 % 0.00 in 0.0 W/m2 CLR
06:14 25.3 °F 20.6 °F 29.79 in Calm     82 % 0.00 in 0.0 W/m2 CLR
06:19 25.4 °F 20.7 °F 29.79 in Calm     82 % 0.00 in 0.0 W/m2 CLR
06:24 25.5 °F 20.5 °F 29.79 in Calm     81 % 0.00 in 0.0 W/m2 CLR
06:29 25.8 °F 20.5 °F 29.79 in Calm     80 % 0.00 in 0.0 W/m2 CLR
06:34 26.0 °F 20.1 °F 29.79 in Calm     78 % 0.00 in 0.0 W/m2 CLR
06:39 26.2 °F 20.0 °F 29.79 in North 0.7 mph 1.0 mph 77 % 0.00 in 0.0 W/m2 CLR
06:44 26.2 °F 19.7 °F 29.79 in North 1.0 mph 3.5 mph 76 % 0.00 in 0.0 W/m2 CLR
06:49 26.4 °F 19.5 °F 29.79 in Calm   1.2 mph 75 % 0.00 in 0.0 W/m2 CLR
06:54 26.6 °F 19.4 °F 29.79 in Calm   2.3 mph 74 % 0.00 in 0.0 W/m2 CLR
06:59 26.8 °F 19.3 °F 29.79 in North 1.1 mph 2.3 mph 73 % 0.00 in 0.0 W/m2 CLR
07:04 27.0 °F 19.2 °F 29.79 in NNW 1.3 mph 3.5 mph 72 % 0.00 in 0.0 W/m2 OVC
07:09 27.0 °F 18.8 °F 29.80 in Calm   1.2 mph 71 % 0.00 in 0.0 W/m2 OVC
07:14 27.0 °F 18.8 °F 29.80 in Calm   2.3 mph 71 % 0.00 in 0.0 W/m2 OVC
07:19 27.1 °F 18.9 °F 29.80 in Calm     71 % 0.00 in 5.0 W/m2 OVC
07:24 27.1 °F 18.6 °F 29.80 in Calm     70 % 0.00 in 9.0 W/m2 OVC
07:29 27.2 °F 18.7 °F 29.80 in Calm     70 % 0.00 in 12.0 W/m2 OVC
07:34 26.8 °F 18.7 °F 29.80 in Calm     71 % 0.00 in 18.0 W/m2 CLR
07:39 26.4 °F 18.9 °F 29.80 in Calm     73 % 0.00 in 23.0 W/m2 CLR
07:44 26.1 °F 18.9 °F 29.80 in Calm     74 % 0.00 in 30.0 W/m2 CLR
07:49 25.9 °F 19.4 °F 29.80 in Calm     76 % 0.00 in 33.0 W/m2 CLR
07:54 25.8 °F 19.6 °F 29.80 in Calm     77 % 0.00 in 35.0 W/m2 CLR
07:59 25.7 °F 19.8 °F 29.81 in Calm     78 % 0.00 in 39.0 W/m2 FEW
08:04 25.9 °F 20.0 °F 29.81 in Calm   1.2 mph 78 % 0.00 in 47.0 W/m2 FEW
08:09 26.1 °F 20.2 °F 29.81 in Calm   1.2 mph 78 % 0.00 in 62.0 W/m2 FEW
08:15 26.3 °F 20.4 °F 29.82 in Calm     78 % 0.00 in 56.0 W/m2 FEW
08:20 26.4 °F 20.2 °F 29.82 in Calm     77 % 0.00 in 54.0 W/m2 SCT
08:25 26.7 °F 20.4 °F 29.82 in Calm     77 % 0.00 in 56.0 W/m2 BKN
08:30 26.8 °F 20.2 °F 29.82 in Calm     76 % 0.00 in 98.0 W/m2 FEW
08:36 27.0 °F 20.4 °F 29.82 in Calm     76 % 0.00 in 116.0 W/m2 CLR
08:41 27.6 °F 20.7 °F 29.82 in NNW 0.8 mph 3.0 mph 75 % 0.00 in 120.0 W/m2 FEW
08:46 28.5 °F 20.9 °F 29.83 in NW 0.1 mph 2.3 mph 73 % 0.00 in 107.0 W/m2 FEW
08:51 28.9 °F 20.7 °F 29.83 in Calm     71 % 0.00 in 121.0 W/m2 FEW
08:56 29.0 °F 20.1 °F 29.83 in NW 0.5 mph 3.5 mph 69 % 0.00 in 200.0 W/m2 CLR
09:01 29.5 °F 20.2 °F 29.83 in NW 0.5 mph 2.3 mph 68 % 0.00 in 155.0 W/m2 FEW
09:06 29.6 °F 20.0 °F 29.83 in NW 0.8 mph 3.5 mph 67 % 0.00 in 162.0 W/m2 FEW
09:11 29.5 °F 19.5 °F 29.83 in WNW 0.9 mph 3.5 mph 66 % 0.00 in 165.0 W/m2 FEW
09:16 29.5 °F 19.5 °F 29.83 in Calm     66 % 0.00 in 186.0 W/m2 FEW
09:21 29.6 °F 19.3 °F 29.83 in NW 0.1 mph 1.2 mph 65 % 0.00 in 172.0 W/m2 FEW
09:26 29.6 °F 19.3 °F 29.84 in NW 0.2 mph 2.3 mph 65 % 0.00 in 169.0 W/m2 FEW
09:31 29.7 °F 19.0 °F 29.84 in Calm     64 % 0.00 in 229.0 W/m2 SCT
09:36 29.9 °F 18.5 °F 29.84 in Calm     62 % 0.00 in 257.0 W/m2 CLR
09:41 30.0 °F 18.2 °F 29.85 in West 3.2 mph 3.5 mph 61 % 0.00 in 192.0 W/m2 SCT
09:46 29.9 °F 17.7 °F 29.85 in West 3.0 mph 5.8 mph 60 % 0.00 in 357.0 W/m2 CLR
09:51 30.3 °F 17.7 °F 29.85 in WNW 4.1 mph 6.9 mph 59 % 0.00 in 288.0 W/m2 FEW
09:56 30.9 °F 18.2 °F 29.85 in NW 1.8 mph 3.5 mph 59 % 0.00 in 243.0 W/m2 FEW
10:01 31.6 °F 18.9 °F 29.85 in NNW 1.0 mph 4.6 mph 59 % 0.00 in 448.0 W/m2 CLR
10:06 31.0 °F 18.7 °F 29.85 in WNW 1.4 mph 7.0 mph 60 % 0.00 in 362.0 W/m2 CLR
10:11 31.4 °F 19.1 °F 29.85 in North 4.4 mph 5.8 mph 60 % 0.00 in 323.0 W/m2 CLR
10:16 32.2 °F 19.9 °F 29.85 in NW 3.6 mph 5.8 mph 60 % 0.00 in 390.0 W/m2 CLR
10:21 31.6 °F 18.9 °F 29.85 in North 2.6 mph 3.5 mph 59 % 0.00 in 399.0 W/m2 CLR
10:26 31.7 °F 19.0 °F 29.85 in NNW 2.2 mph 5.8 mph 59 % 0.00 in 396.0 W/m2 CLR
10:31 31.8 °F 18.7 °F 29.84 in Calm     58 % 0.00 in 381.0 W/m2 CLR
10:36 32.3 °F 18.8 °F 29.84 in NNW 1.5 mph 3.5 mph 57 % 0.00 in 246.0 W/m2 SCT
10:41 32.2 °F 17.4 °F 29.84 in WNW 1.2 mph 4.0 mph 54 % 0.00 in 267.0 W/m2 FEW
10:46 32.7 °F 18.7 °F 29.84 in North 1.9 mph 4.6 mph 56 % 0.00 in 213.0 W/m2 SCT
10:51 32.0 °F 18.1 °F 29.84 in Calm     56 % 0.00 in 392.0 W/m2 CLR
10:56 32.3 °F 17.9 °F 29.84 in NW 1.7 mph 3.5 mph 55 % 0.00 in 278.0 W/m2 FEW
11:01 32.3 °F 17.5 °F 29.84 in NW 0.4 mph 4.0 mph 54 % 0.00 in 195.0 W/m2 SCT
11:13 33.8 °F 18.9 °F 29.85 in NW 2.0 mph 4.6 mph 54 % 0.00 in 420.0 W/m2 CLR
11:19 34.1 °F 18.7 °F 29.85 in West 7.4 mph 10.4 mph 53 % 0.00 in 645.0 W/m2 CLR
11:20 34.1 °F 18.7 °F 29.84 in WSW 6.4 mph 10.4 mph 53 % 0.00 in 645.0 W/m2 CLR
11:22 33.8 °F 18.5 °F 29.84 in West 7.3 mph 11.5 mph 53 % 0.00 in 176.0 W/m2 BKN
11:23 33.4 °F 18.1 °F 29.84 in West 4.9 mph 9.2 mph 53 % 0.00 in 174.0 W/m2 BKN
11:27 33.0 °F 18.1 °F 29.84 in NW 5.8 mph 10.4 mph 54 % 0.00 in 236.0 W/m2 BKN
11:32 34.0 °F 19.1 °F 29.84 in WNW 7.6 mph 10.4 mph 54 % 0.00 in 807.0 W/m2 FEW
11:37 34.9 °F 19.5 °F 29.84 in NW 7.5 mph 10.4 mph 53 % 0.00 in 239.0 W/m2 SCT
11:42 34.0 °F 18.2 °F 29.84 in WSW 4.8 mph 10.4 mph 52 % 0.00 in 202.0 W/m2 BKN
11:47 33.5 °F 18.6 °F 29.84 in NW 4.0 mph 5.8 mph 54 % 0.00 in 181.0 W/m2 BKN
11:52 33.9 °F 18.6 °F 29.84 in WNW 4.6 mph 10.4 mph 53 % 0.00 in 253.0 W/m2 SCT
11:57 34.1 °F 18.7 °F 29.83 in WNW 3.0 mph 8.1 mph 53 % 0.00 in 165.0 W/m2 BKN
12:03 33.4 °F 18.1 °F 29.83 in NNW 2.7 mph 4.6 mph 53 % 0.00 in 144.0 W/m2 BKN
12:14 34.9 °F 20.4 °F 29.83 in North 4.6 mph 9.2 mph 55 % 0.00 in 698.0 W/m2 CLR
12:19 34.5 °F 18.7 °F 29.83 in NW 3.6 mph 6.0 mph 52 % 0.00 in 135.0 W/m2 BKN
12:27 34.0 °F 18.6 °F 29.82 in West 3.5 mph 5.8 mph 53 % 0.00 in 610.0 W/m2 FEW
12:32 35.1 °F 19.2 °F 29.82 in NW 5.8 mph 9.2 mph 52 % 0.00 in 552.0 W/m2 CLR
12:37 34.8 °F 18.0 °F 29.82 in West 4.6 mph 8.1 mph 50 % 0.00 in 624.0 W/m2 CLR
12:42 34.5 °F 18.7 °F 29.82 in North 3.7 mph 6.9 mph 52 % 0.00 in 155.0 W/m2 BKN
12:47 35.1 °F 18.3 °F 29.82 in NW 5.7 mph 10.4 mph 50 % 0.00 in 714.0 W/m2 SCT
12:55 34.8 °F 17.6 °F 29.81 in WSW 2.0 mph 2.3 mph 49 % 0.00 in 167.0 W/m2 BKN
13:01 34.1 °F 18.3 °F 29.81 in WSW 3.2 mph 5.8 mph 52 % 0.00 in 118.0 W/m2 BKN
13:06 34.1 °F 17.8 °F 29.81 in WNW 4.3 mph 8.1 mph 51 % 0.00 in 116.0 W/m2 BKN
13:11 33.9 °F 17.2 °F 29.82 in WNW 3.5 mph 6.9 mph 50 % 0.00 in 88.0 W/m2 OVC
13:16 34.0 °F 17.7 °F 29.82 in NW 3.5 mph 10.0 mph 51 % 0.00 in 98.0 W/m2 OVC
13:17 34.0 °F 17.7 °F 29.82 in WNW 7.5 mph 11.5 mph 51 % 0.00 in 107.0 W/m2 OVC
13:22 33.5 °F 19.0 °F 29.81 in NNW 6.1 mph 6.9 mph 55 % 0.00 in 149.0 W/m2 BKN
13:27 33.8 °F 19.3 °F 29.81 in WNW 7.5 mph 9.2 mph 55 % 0.00 in 204.0 W/m2 BKN
13:32 34.3 °F 19.4 °F 29.81 in NNW 3.6 mph 8.1 mph 54 % 0.00 in 163.0 W/m2 BKN
13:37 34.1 °F 18.7 °F 29.81 in NW 5.8 mph 11.5 mph 53 % 0.00 in 137.0 W/m2 BKN
13:42 33.8 °F 19.3 °F 29.81 in NNW 7.6 mph 11.5 mph 55 % 0.00 in 176.0 W/m2 BKN
13:48 33.6 °F 20.4 °F 29.82 in NW 11.0 mph 12.0 mph 58 % 0.00 in 142.0 W/m2 BKN
13:53 32.8 °F 20.8 °F 29.82 in NW 8.0 mph 11.5 mph 61 % 0.00 in 121.0 W/m2 BKN
13:58 32.5 °F 21.7 °F 29.82 in NW 2.6 mph 4.0 mph 64 % 0.00 in 232.0 W/m2 SCT
14:03 33.7 °F 22.8 °F 29.81 in NW 4.0 mph 6.0 mph 64 % 0.00 in 526.0 W/m2 CLR
14:08 34.9 °F 23.2 °F 29.82 in NW 1.3 mph 3.5 mph 62 % 0.00 in 450.0 W/m2 CLR
14:13 34.7 °F 21.8 °F 29.82 in WSW 4.5 mph 8.1 mph 59 % 0.00 in 404.0 W/m2 CLR
14:18 34.2 °F 21.4 °F 29.82 in West 2.6 mph 5.8 mph 59 % 0.00 in 118.0 W/m2 BKN
14:23 34.1 °F 20.9 °F 29.82 in WNW 8.2 mph 11.5 mph 58 % 0.00 in 70.0 W/m2 OVC
14:28 33.6 °F 21.2 °F 29.82 in WSW 2.6 mph 8.1 mph 60 % 0.00 in 54.0 W/m2 OVC
14:33 32.7 °F 21.9 °F 29.83 in WNW 8.4 mph 12.7 mph 64 % 0.00 in 42.0 W/m2 OVC
14:46 30.2 °F 22.3 °F 29.83 in West 0.7 mph 2.3 mph 72 % 0.00 in 93.0 W/m2 BKN
14:55 31.1 °F 23.8 °F 29.83 in WNW 1.9 mph 4.0 mph 74 % 0.00 in 116.0 W/m2 BKN
15:00 31.5 °F 23.8 °F 29.83 in WNW 5.2 mph 11.5 mph 73 % 0.00 in 156.0 W/m2 SCT
15:05 31.8 °F 23.8 °F 29.83 in WNW 6.6 mph 11.5 mph 72 % 0.00 in 97.0 W/m2 BKN
15:10 31.7 °F 23.4 °F 29.84 in WNW 8.5 mph 12.0 mph 71 % 0.00 in 51.0 W/m2 OVC
15:18 30.8 °F 23.5 °F 29.85 in WSW 9.0 mph 13.8 mph 74 % 0.00 in 44.0 W/m2 OVC
15:23 30.2 °F 23.2 °F 29.85 in West 10.0 mph 12.7 mph 75 % 0.00 in 63.0 W/m2 OVC
15:28 29.5 °F 23.5 °F 29.85 in West 7.9 mph 11.5 mph 78 % 0.00 in 114.0 W/m2 BKN
15:34 29.2 °F 24.1 °F 29.85 in West 1.2 mph 3.5 mph 81 % 0.00 in 241.0 W/m2 CLR
15:39 29.4 °F 24.9 °F 29.85 in SW 1.2 mph 3.5 mph 83 % 0.00 in 316.0 W/m2 CLR
15:44 29.6 °F 25.4 °F 29.85 in West 5.0 mph 6.9 mph 84 % 0.00 in 267.0 W/m2 CLR
15:51 30.0 °F 25.5 °F 29.85 in West 2.6 mph 4.0 mph 83 % 0.00 in 188.0 W/m2 CLR
15:56 30.3 °F 25.5 °F 29.85 in West 1.4 mph 3.0 mph 82 % 0.00 in 172.0 W/m2 CLR
16:01 30.4 °F 25.3 °F 29.85 in West 2.2 mph 3.5 mph 81 % 0.00 in 144.0 W/m2 CLR
16:06 30.8 °F 25.7 °F 29.85 in West 0.3 mph 2.3 mph 81 % 0.00 in 128.0 W/m2 CLR
16:11 31.0 °F 25.6 °F 29.85 in WSW 1.2 mph 3.5 mph 80 % 0.00 in 111.0 W/m2 CLR
16:16 30.8 °F 25.4 °F 29.86 in WSW 3.8 mph 6.9 mph 80 % 0.00 in 95.0 W/m2 CLR
16:21 30.8 °F 25.1 °F 29.86 in SW 4.3 mph 5.8 mph 79 % 0.00 in 79.0 W/m2 FEW
16:26 30.7 °F 25.0 °F 29.86 in SW 4.0 mph 5.8 mph 79 % 0.00 in 62.0 W/m2 SCT
16:31 30.5 °F 24.8 °F 29.86 in SW 2.8 mph 5.8 mph 79 % 0.00 in 49.0 W/m2 SCT
16:36 30.4 °F 24.7 °F 29.86 in WSW 2.8 mph 3.5 mph 79 % 0.00 in 28.0 W/m2 BKN
16:41 30.2 °F 24.5 °F 29.86 in WSW 3.5 mph 4.6 mph 79 % 0.00 in 28.0 W/m2 SCT
16:46 30.0 °F 24.6 °F 29.87 in WSW 0.9 mph 3.0 mph 80 % 0.00 in 33.0 W/m2 FEW
16:51 30.0 °F 24.6 °F 29.87 in WSW 3.1 mph 5.0 mph 80 % 0.00 in 26.0 W/m2 SCT
16:56 30.0 °F 24.6 °F 29.87 in WSW 2.4 mph 3.5 mph 80 % 0.00 in 19.0 W/m2 FEW
17:02 30.2 °F 24.8 °F 29.88 in WSW 1.3 mph 3.5 mph 80 % 0.00 in 14.0 W/m2 FEW
17:07 30.2 °F 24.8 °F 29.88 in WSW 1.0 mph 3.5 mph 80 % 0.00 in 18.0 W/m2 CLR
17:12 30.2 °F 24.8 °F 29.88 in WSW 1.6 mph 3.5 mph 80 % 0.00 in 14.0 W/m2 CLR
17:17 30.3 °F 24.6 °F 29.89 in WNW 1.1 mph 3.5 mph 79 % 0.00 in 5.0 W/m2 OVC
17:22 30.3 °F 24.3 °F 29.89 in WNW 0.5 mph 2.3 mph 78 % 0.00 in 0.0 W/m2 OVC
17:27 30.3 °F 24.0 °F 29.89 in WNW 0.6 mph 3.5 mph 77 % 0.00 in 0.0 W/m2 OVC
17:32 30.3 °F 24.0 °F 29.89 in WNW 0.5 mph 2.3 mph 77 % 0.00 in 0.0 W/m2 OVC
17:37 30.2 °F 23.5 °F 29.89 in WNW 1.0 mph 3.5 mph 76 % 0.00 in 0.0 W/m2 OVC
17:42 30.1 °F 23.4 °F 29.90 in West 0.7 mph 3.5 mph 76 % 0.00 in 0.0 W/m2 OVC
17:47 30.0 °F 23.4 °F 29.90 in West 1.2 mph 3.5 mph 76 % 0.00 in 0.0 W/m2 OVC
17:52 29.7 °F 23.1 °F 29.90 in Calm   1.2 mph 76 % 0.00 in 0.0 W/m2 CLR
17:57 29.5 °F 22.9 °F 29.90 in West 0.3 mph 1.2 mph 76 % 0.00 in 0.0 W/m2 CLR
18:02 29.3 °F 22.7 °F 29.91 in WSW 0.1 mph 3.5 mph 76 % 0.00 in 0.0 W/m2 CLR
18:07 29.1 °F 22.5 °F 29.91 in WSW 1.1 mph 3.5 mph 76 % 0.00 in 0.0 W/m2 CLR
18:12 28.9 °F 22.3 °F 29.92 in WSW 1.2 mph 3.5 mph 76 % 0.00 in 0.0 W/m2 CLR
18:17 28.8 °F 22.5 °F 29.92 in WSW 2.5 mph 4.6 mph 77 % 0.00 in 0.0 W/m2 CLR
18:22 28.6 °F 22.3 °F 29.92 in West 1.6 mph 3.5 mph 77 % 0.00 in 0.0 W/m2 CLR
18:27 28.5 °F 22.2 °F 29.92 in West 3.4 mph 6.9 mph 77 % 0.00 in 0.0 W/m2 CLR
18:32 28.5 °F 22.5 °F 29.93 in West 2.2 mph 3.5 mph 78 % 0.00 in 0.0 W/m2 CLR
18:37 28.4 °F 22.4 °F 29.93 in West 4.6 mph 7.0 mph 78 % 0.00 in 0.0 W/m2 CLR
18:42 28.3 °F 22.3 °F 29.93 in West 2.6 mph 3.5 mph 78 % 0.00 in 0.0 W/m2 CLR
18:47 28.1 °F 22.1 °F 29.93 in West 1.4 mph 3.5 mph 78 % 0.00 in 0.0 W/m2 CLR
18:52 28.0 °F 22.3 °F 29.94 in West 1.1 mph 3.5 mph 79 % 0.00 in 0.0 W/m2 CLR
18:57 27.9 °F 22.2 °F 29.94 in WSW 2.6 mph 8.1 mph 79 % 0.00 in 0.0 W/m2 CLR
19:02 27.8 °F 22.1 °F 29.94 in West 2.3 mph 3.5 mph 79 % 0.00 in 0.0 W/m2 CLR
19:07 27.7 °F 22.0 °F 29.95 in West 1.3 mph 3.5 mph 79 % 0.00 in 0.0 W/m2 CLR
19:12 27.6 °F 22.2 °F 29.95 in NW 0.1 mph 1.0 mph 80 % 0.00 in 0.0 W/m2 CLR
19:17 27.5 °F 22.1 °F 29.95 in West 0.4 mph 2.3 mph 80 % 0.00 in 0.0 W/m2 CLR
19:22 27.3 °F 21.9 °F 29.96 in West 0.3 mph 1.2 mph 80 % 0.00 in 0.0 W/m2 CLR
19:27 27.2 °F 21.8 °F 29.96 in West 0.2 mph   80 % 0.00 in 0.0 W/m2 CLR
19:32 27.2 °F 21.8 °F 29.96 in WNW 1.5 mph 3.5 mph 80 % 0.00 in 0.0 W/m2 CLR
19:37 27.4 °F 22.0 °F 29.97 in WNW 0.6 mph 2.3 mph 80 % 0.00 in 0.0 W/m2 CLR
19:42 27.7 °F 22.0 °F 29.97 in NNW 6.2 mph 9.2 mph 79 % 0.00 in 0.0 W/m2 CLR
19:47 27.9 °F 21.6 °F 29.96 in WNW 1.1 mph 3.5 mph 77 % 0.00 in 0.0 W/m2 CLR
19:52 28.1 °F 21.5 °F 29.97 in WNW 0.9 mph 3.5 mph 76 % 0.00 in 0.0 W/m2 CLR
19:57 28.2 °F 21.3 °F 29.97 in WNW 1.1 mph   75 % 0.00 in 0.0 W/m2 CLR
20:02 28.2 °F 21.3 °F 29.98 in WNW 2.2 mph 2.2 mph 75 % 0.00 in 0.0 W/m2 CLR
20:07 28.2 °F 21.3 °F 29.98 in WSW 0.7 mph 4.0 mph 75 % 0.00 in 0.0 W/m2 CLR
20:12 28.2 °F 21.3 °F 29.98 in Calm   5.8 mph 75 % 0.00 in 0.0 W/m2 CLR
20:17 28.2 °F 21.3 °F 29.99 in WNW 1.8 mph 5.8 mph 75 % 0.00 in 0.0 W/m2 CLR
20:23 28.1 °F 21.5 °F 29.99 in West 1.1 mph 5.8 mph 76 % 0.00 in 0.0 W/m2 CLR
20:28 28.1 °F 21.5 °F 29.99 in WSW 1.3 mph 3.5 mph 76 % 0.00 in 0.0 W/m2 CLR
20:33 27.9 °F 21.6 °F 29.99 in WSW 0.9 mph 3.5 mph 77 % 0.00 in 0.0 W/m2 CLR
20:38 27.7 °F 21.4 °F 29.99 in WSW 0.1 mph 2.0 mph 77 % 0.00 in 0.0 W/m2 CLR
20:43 27.5 °F 21.5 °F 29.99 in WSW 0.3 mph 1.2 mph 78 % 0.00 in 0.0 W/m2 CLR
20:48 27.4 °F 21.4 °F 29.99 in West 2.5 mph 3.5 mph 78 % 0.00 in 0.0 W/m2 CLR
20:53 27.2 °F 21.5 °F 30.00 in Calm     79 % 0.00 in 0.0 W/m2 CLR
20:58 27.2 °F 21.5 °F 30.00 in WSW 0.3 mph 2.3 mph 79 % 0.00 in 0.0 W/m2 CLR
21:03 27.1 °F 21.5 °F 30.00 in WSW 0.6 mph 2.3 mph 79 % 0.00 in 0.0 W/m2 CLR
21:08 27.0 °F 21.7 °F 30.00 in SW 4.2 mph 6.9 mph 80 % 0.00 in 0.0 W/m2 CLR
21:13 27.0 °F 21.7 °F 30.00 in WSW 1.6 mph 5.8 mph 80 % 0.00 in 0.0 W/m2 CLR
21:18 26.9 °F 21.6 °F 30.00 in West 2.0 mph 3.5 mph 80 % 0.00 in 0.0 W/m2 CLR
21:23 26.8 °F 21.5 °F 30.00 in WSW 3.1 mph 5.8 mph 80 % 0.00 in 0.0 W/m2 CLR
21:28 26.8 °F 21.8 °F 30.00 in WSW 3.7 mph 8.1 mph 81 % 0.00 in 0.0 W/m2 CLR
21:33 26.7 °F 21.7 °F 30.00 in WSW 1.5 mph 4.6 mph 81 % 0.00 in 0.0 W/m2 CLR
21:38 26.7 °F 21.7 °F 30.00 in WSW 2.4 mph 8.0 mph 81 % 0.00 in 0.0 W/m2 CLR
21:43 26.8 °F 22.0 °F 30.00 in West 3.0 mph 5.8 mph 82 % 0.00 in 0.0 W/m2 CLR
21:48 26.9 °F 22.1 °F 30.00 in WSW 5.5 mph 8.1 mph 82 % 0.00 in 0.0 W/m2 CLR
21:53 26.8 °F 22.0 °F 30.00 in WSW 3.0 mph 6.9 mph 82 % 0.00 in 0.0 W/m2 CLR
21:58 26.8 °F 22.3 °F 30.00 in SW 5.4 mph 9.2 mph 83 % 0.00 in 0.0 W/m2 CLR
22:03 26.7 °F 22.2 °F 30.00 in West 4.4 mph 8.0 mph 83 % 0.00 in 0.0 W/m2 CLR
22:08 26.6 °F 22.4 °F 30.00 in West 2.3 mph 6.9 mph 84 % 0.00 in 0.0 W/m2 CLR
22:13 26.4 °F 22.2 °F 30.00 in WSW 8.8 mph 9.2 mph 84 % 0.00 in 0.0 W/m2 CLR
22:18 26.2 °F 22.0 °F 30.00 in West 3.9 mph 6.9 mph 84 % 0.00 in 0.0 W/m2 CLR
22:23 26.0 °F 21.8 °F 30.00 in West 3.3 mph 3.5 mph 84 % 0.00 in 0.0 W/m2 CLR
22:28 25.9 °F 21.7 °F 30.00 in WSW 1.9 mph 5.0 mph 84 % 0.00 in 0.0 W/m2 CLR
22:33 25.7 °F 21.5 °F 30.00 in WSW 1.0 mph 7.0 mph 84 % 0.00 in 0.0 W/m2 CLR
22:38 25.5 °F 21.3 °F 30.00 in West 2.3 mph 3.5 mph 84 % 0.00 in 0.0 W/m2 CLR
22:43 25.4 °F 21.0 °F 30.00 in WSW 2.1 mph 5.8 mph 83 % 0.00 in 0.0 W/m2 CLR
22:48 25.3 °F 20.9 °F 30.00 in West 1.5 mph 3.5 mph 83 % 0.00 in 0.0 W/m2 CLR
22:53 25.1 °F 20.4 °F 30.00 in West 0.1 mph 2.0 mph 82 % 0.00 in 0.0 W/m2 CLR
22:58 25.0 °F 20.3 °F 30.00 in West 0.2 mph 2.3 mph 82 % 0.00 in 0.0 W/m2 CLR
23:03 24.9 °F 20.2 °F 30.00 in West 0.8 mph 2.3 mph 82 % 0.00 in 0.0 W/m2 CLR
23:08 24.8 °F 20.1 °F 30.00 in SW 0.5 mph 2.0 mph 82 % 0.00 in 0.0 W/m2 CLR
23:13 24.8 °F 20.4 °F 30.00 in WSW 1.2 mph 3.5 mph 83 % 0.00 in 0.0 W/m2 CLR
23:18 24.8 °F 20.4 °F 30.00 in WSW 1.8 mph 4.6 mph 83 % 0.00 in 0.0 W/m2 CLR
23:23 24.5 °F 20.1 °F 30.00 in Calm   2.3 mph 83 % 0.00 in 0.0 W/m2 CLR
23:28 24.4 °F 20.3 °F 30.00 in SW 1.5 mph 3.5 mph 84 % 0.00 in 0.0 W/m2 CLR
23:33 24.2 °F 20.1 °F 30.00 in WSW 1.3 mph 5.8 mph 84 % 0.00 in 0.0 W/m2 CLR
23:38 24.1 °F 20.0 °F 30.00 in WSW 2.0 mph 6.9 mph 84 % 0.00 in 0.0 W/m2 CLR
23:43 24.0 °F 19.6 °F 30.00 in WSW 3.6 mph 6.9 mph 83 % 0.00 in 0.0 W/m2 CLR
23:48 24.0 °F 19.6 °F 30.00 in WSW 2.5 mph 4.6 mph 83 % 0.00 in 0.0 W/m2 CLR
23:53 23.9 °F 19.5 °F 30.00 in West 2.2 mph 6.0 mph 83 % 0.00 in 0.0 W/m2 CLR
23:58 23.8 °F 19.1 °F 30.00 in WSW 3.0 mph 5.8 mph 82 % 0.00 in 0.0 W/m2 CLR
Air Products Campus Weather
Compliments of Weather Underground - 3.25 mb